[Date Prev][Date Next][Thread Prev][Thread Next] - [Date Index][Thread Index][Author Index]

2 Line ISS Keps 6-23



ISS
1 25544U 98067A   05174.02453384  .00007589  00000-0  58718-4 0  7480
2 25544 051.6461 230.9811 0004046 300.3271 139.4763 15.73052405376606
----
Via the sarex mailing list at AMSAT.ORG courtesy of AMSAT-NA.
To unsubscribe, send "unsubscribe sarex" to Majordomo@amsat.org



AMSAT Top AMSAT Home